• In Switzerland
  • List of Countries
  • For 7 days
  • Water Temperature
  • Satellite Maps
  • Weather Map
  • Weather Widgets
  • user-avatar
    Login

    Hourly Weather Malye Yakovichi

    Today, 19 September, Wednesday

    Time Temperature Precipitation Wind Pressure Humidity
    00:00 +16°C° 0 mm 2 mps 751 mmHg 85%
    01:00 +16°C° 0 mm 2 mps 751 mmHg 86%
    02:00 +16°C° 0 mm 2 mps 750 mmHg 88%
    03:00 +16°C° 0 mm 2 mps 750 mmHg 89%
    04:00 +15°C° 0 mm 2 mps 750 mmHg 90%
    05:00 +15°C° 0 mm 2 mps 750 mmHg 91%
    06:00 +16°C° 0 mm 3 mps 750 mmHg 87%
    07:00 +17°C° 0 mm 3 mps 750 mmHg 82%
    08:00 +18°C° 0 mm 3 mps 750 mmHg 78%
    09:00 +20°C° 0 mm 4 mps 750 mmHg 72%
    10:00 +21°C° 0 mm 4 mps 751 mmHg 65%
    11:00 +23°C° 0 mm 4 mps 751 mmHg 58%
    12:00 +25°C° 0 mm 4 mps 750 mmHg 55%
    13:00 +26°C° 0 mm 4 mps 750 mmHg 51%
    14:00 +27°C° 0 mm 4 mps 750 mmHg 48%
    15:00 +27°C° 0 mm 4 mps 750 mmHg 51%
    16:00 +26°C° 0 mm 3 mps 750 mmHg 54%
    17:00 +26°C° 0 mm 2 mps 750 mmHg 57%
    18:00 +24°C° 0 mm 2 mps 750 mmHg 60%
    19:00 +21°C° 0 mm 2 mps 750 mmHg 64%
    20:00 +20°C° 0 mm 2 mps 750 mmHg 67%
    21:00 +19°C° 0 mm 2 mps 750 mmHg 68%
    22:00 +19°C° 0 mm 2 mps 750 mmHg 69%
    23:00 +18°C° 0 mm 2 mps 750 mmHg 70%

    Tomorrow, 20 September, Thursday

    Time Temperature Precipitation Wind Pressure Humidity
    00:00 +18°C° 0 mm 2 mps 750 mmHg 72%
    01:00 +17°C° 0 mm 2 mps 750 mmHg 73%
    02:00 +17°C° 0 mm 2 mps 751 mmHg 74%
    03:00 +17°C° 0 mm 2 mps 751 mmHg 75%
    04:00 +16°C° 0 mm 2 mps 751 mmHg 77%
    05:00 +16°C° 0 mm 2 mps 750 mmHg 78%
    06:00 +17°C° 0 mm 2 mps 751 mmHg 76%
    07:00 +18°C° 0 mm 2 mps 751 mmHg 74%
    08:00 +18°C° 0 mm 2 mps 751 mmHg 72%
    09:00 +20°C° 0 mm 2 mps 751 mmHg 67%
    10:00 +23°C° 0 mm 2 mps 751 mmHg 61%
    11:00 +25°C° 0 mm 2 mps 751 mmHg 56%
    12:00 +26°C° 0 mm 2 mps 751 mmHg 53%
    13:00 +27°C° 0 mm 2 mps 751 mmHg 50%
    14:00 +28°C° 0 mm 2 mps 751 mmHg 48%
    15:00 +28°C° 0 mm 2 mps 750 mmHg 51%
    16:00 +27°C° 0 mm 2 mps 750 mmHg 53%
    17:00 +27°C° 0 mm 2 mps 750 mmHg 56%
    18:00 +25°C° 0 mm 2 mps 750 mmHg 59%
    19:00 +23°C° 0 mm 2 mps 750 mmHg 63%
    20:00 +20°C° 0 mm 2 mps 750 mmHg 67%
    21:00 +20°C° 0 mm 2 mps 750 mmHg 68%
    22:00 +19°C° 0 mm 2 mps 750 mmHg 69%
    23:00 +19°C° 0 mm 2 mps 750 mmHg 70%

    Day after tomorrow, 21 September, Friday

    Time Temperature Precipitation Wind Pressure Humidity
    00:00 +18°C° 0 mm 2 mps 750 mmHg 72%
    01:00 +18°C° 0 mm 2 mps 750 mmHg 73%
    02:00 +17°C° 0 mm 2 mps 750 mmHg 74%
    03:00 +17°C° 0 mm 2 mps 750 mmHg 75%
    04:00 +17°C° 0 mm 2 mps 750 mmHg 76%
    05:00 +16°C° 0 mm 2 mps 750 mmHg 77%
    06:00 +17°C° 0 mm 2 mps 750 mmHg 75%
    07:00 +18°C° 0 mm 2 mps 750 mmHg 73%
    08:00 +18°C° 0 mm 2 mps 750 mmHg 71%
    09:00 +20°C° 0 mm 3 mps 750 mmHg 65%
    10:00 +22°C° 0 mm 3 mps 750 mmHg 59%
    11:00 +25°C° 0 mm 3 mps 750 mmHg 53%
    12:00 +26°C° 0 mm 4 mps 750 mmHg 51%
    13:00 +26°C° 0 mm 4 mps 749 mmHg 49%
    14:00 +27°C° 0 mm 5 mps 749 mmHg 47%
    15:00 +26°C° 0 mm 4 mps 748 mmHg 50%
    16:00 +26°C° 0 mm 4 mps 748 mmHg 53%
    17:00 +25°C° 0 mm 3 mps 747 mmHg 57%
    18:00 +24°C° 0 mm 3 mps 747 mmHg 60%
    19:00 +21°C° 0 mm 4 mps 747 mmHg 63%
    20:00 +20°C° 0 mm 4 mps 747 mmHg 67%
    21:00 +20°C° 0 mm 4 mps 746 mmHg 68%
    22:00 +19°C° 0 mm 4 mps 746 mmHg 68%
    23:00 +19°C° 0 mm 4 mps 746 mmHg 69%

    22 September, Saturday

    Time Temperature Precipitation Wind Pressure Humidity
    00:00 +19°C° 0 mm 5 mps 746 mmHg 70%
    01:00 +19°C° 0 mm 5 mps 745 mmHg 71%
    02:00 +17°C° 0 mm 5 mps 745 mmHg 73%
    03:00 +17°C° 0 mm 5 mps 744 mmHg 72%
    04:00 +17°C° 0 mm 5 mps 744 mmHg 71%
    05:00 +17°C° 0 mm 5 mps 744 mmHg 71%
    06:00 +17°C° 0 mm 5 mps 744 mmHg 69%
    07:00 +17°C° 0 mm 5 mps 744 mmHg 66%
    08:00 +19°C° 0 mm 5 mps 744 mmHg 64%
    09:00 +19°C° 0 mm 5 mps 745 mmHg 65%
    10:00 +20°C° 0 mm 6 mps 745 mmHg 65%
    11:00 +20°C° 0 mm 6 mps 746 mmHg 66%
    12:00 +17°C° 0.1 mm 5 mps 746 mmHg 70%
    13:00 +16°C° 0.1 mm 5 mps 747 mmHg 73%
    14:00 +14°C° 0.1 mm 5 mps 748 mmHg 77%
    15:00 +14°C° 0.1 mm 4 mps 748 mmHg 78%
    16:00 +13°C° 0.1 mm 4 mps 748 mmHg 79%
    17:00 +13°C° 0.1 mm 3 mps 749 mmHg 80%
    18:00 +13°C° 0.1 mm 3 mps 749 mmHg 80%
    19:00 +12°C° 0.1 mm 3 mps 750 mmHg 80%
    20:00 +12°C° 0.1 mm 3 mps 750 mmHg 80%
    21:00 +12°C° 0.1 mm 3 mps 750 mmHg 79%
    22:00 +11°C° 0.1 mm 3 mps 750 mmHg 77%
    23:00 +11°C° 0.1 mm 3 mps 750 mmHg 76%

    23 September, Sunday

    Time Temperature Precipitation Wind Pressure Humidity
    00:00 +11°C° 0 mm 3 mps 750 mmHg 75%
    01:00 +10°C° 0 mm 3 mps 750 mmHg 74%
    02:00 +10°C° 0 mm 3 mps 750 mmHg 74%
    03:00 +10°C° 0 mm 2 mps 750 mmHg 76%
    04:00 +9°C° 0 mm 2 mps 750 mmHg 78%
    05:00 +8°C° 0 mm 2 mps 750 mmHg 80%
    06:00 +9°C° 0 mm 2 mps 750 mmHg 78%
    07:00 +9°C° 0 mm 3 mps 750 mmHg 76%
    08:00 +10°C° 0 mm 3 mps 750 mmHg 74%
    09:00 +12°C° 0 mm 3 mps 751 mmHg 66%
    10:00 +13°C° 0 mm 4 mps 751 mmHg 58%
    11:00 +15°C° 0 mm 4 mps 751 mmHg 50%
    12:00 +16°C° 0 mm 5 mps 751 mmHg 48%
    13:00 +16°C° 0 mm 5 mps 750 mmHg 45%
    14:00 +17°C° 0 mm 5 mps 750 mmHg 43%
    15:00 +17°C° 0 mm 4 mps 750 mmHg 46%
    16:00 +17°C° 0 mm 3 mps 750 mmHg 48%
    17:00 +16°C° 0 mm 2 mps 750 mmHg 50%
    18:00 +15°C° 0 mm 2 mps 750 mmHg 53%
    19:00 +13°C° 0 mm 2 mps 750 mmHg 56%
    20:00 +12°C° 0 mm 1 mps 750 mmHg 59%
    21:00 +12°C° 0 mm 2 mps 749 mmHg 60%
    22:00 +10°C° 0 mm 2 mps 749 mmHg 62%
    23:00 +10°C° 0 mm 2 mps 749 mmHg 63%

    24 September, Monday

    Time Temperature Precipitation Wind Pressure Humidity
    00:00 +9°C° 0 mm 2 mps 748 mmHg 64%
    01:00 +9°C° 0 mm 3 mps 748 mmHg 65%
    02:00 +9°C° 0 mm 3 mps 747 mmHg 66%
    03:00 +8°C° 0 mm 4 mps 747 mmHg 65%
    04:00 +10°C° 0 mm 4 mps 746 mmHg 64%
    05:00 +9°C° 0 mm 5 mps 746 mmHg 63%
    06:00 +10°C° 0 mm 5 mps 745 mmHg 63%
    07:00 +10°C° 0 mm 6 mps 745 mmHg 62%
    08:00 +10°C° 0 mm 6 mps 745 mmHg 62%
    09:00 +12°C° 0 mm 7 mps 744 mmHg 59%
    10:00 +13°C° 0 mm 8 mps 743 mmHg 56%
    11:00 +15°C° 0 mm 9 mps 743 mmHg 54%
    12:00 +15°C° 0 mm 8 mps 742 mmHg 57%
    13:00 +14°C° 0 mm 7 mps 741 mmHg 60%
    14:00 +14°C° 0 mm 7 mps 741 mmHg 63%
    15:00 +14°C° 0 mm 6 mps 741 mmHg 63%
    16:00 +15°C° 0 mm 5 mps 740 mmHg 63%
    17:00 +15°C° 0 mm 4 mps 740 mmHg 63%
    18:00 +16°C° 1 mm 3 mps 740 mmHg 71%
    19:00 +14°C° 1 mm 3 mps 740 mmHg 79%
    20:00 +14°C° 1 mm 2 mps 740 mmHg 87%
    21:00 +14°C° 0.4 mm 2 mps 740 mmHg 89%
    22:00 +13°C° 0.4 mm 2 mps 740 mmHg 90%
    23:00 +12°C° 0.4 mm 3 mps 740 mmHg 92%
    Show more